• In Netherlands
  • List of Countries
  • For 7 days
  • Water Temperature
  • Satellite Maps
  • Weather Map
  • Weather Widgets
  • user-avatar
    Login

    Hourly Weather San Miguel de Tucumán

    Today, 27 May, Saturday

    Time Temperature Precipitation Wind Pressure Humidity
    00:00 +9°C° 0 mm 3 mps 726 mmHg 88%
    01:00 +8°C° 0 mm 2 mps 726 mmHg 88%
    02:00 +8°C° 0 mm 2 mps 726 mmHg 88%
    03:00 +8°C° 0 mm 2 mps 726 mmHg 88%
    04:00 +8°C° 0 mm 2 mps 726 mmHg 87%
    05:00 +8°C° 0 mm 2 mps 726 mmHg 87%
    06:00 +8°C° 0 mm 2 mps 726 mmHg 85%
    07:00 +8°C° 0 mm 2 mps 727 mmHg 82%
    08:00 +9°C° 0 mm 2 mps 727 mmHg 80%
    09:00 +10°C° 0 mm 3 mps 727 mmHg 71%
    10:00 +12°C° 0 mm 3 mps 727 mmHg 62%
    11:00 +14°C° 0 mm 3 mps 727 mmHg 53%
    12:00 +14°C° 0 mm 3 mps 726 mmHg 51%
    13:00 +16°C° 0 mm 3 mps 725 mmHg 49%
    14:00 +16°C° 0 mm 3 mps 724 mmHg 47%
    15:00 +16°C° 0 mm 3 mps 724 mmHg 51%
    16:00 +15°C° 0 mm 2 mps 724 mmHg 55%
    17:00 +14°C° 0 mm 2 mps 724 mmHg 58%
    18:00 +12°C° 0 mm 2 mps 724 mmHg 65%
    19:00 +9°C° 0 mm 2 mps 725 mmHg 72%
    20:00 +8°C° 0 mm 2 mps 725 mmHg 78%
    21:00 +8°C° 0 mm 2 mps 725 mmHg 79%
    22:00 +7°C° 0 mm 2 mps 725 mmHg 79%
    23:00 +7°C° 0 mm 2 mps 726 mmHg 79%

    Tomorrow, 28 May, Sunday

    Time Temperature Precipitation Wind Pressure Humidity
    00:00 +7°C° 0 mm 2 mps 725 mmHg 80%
    01:00 +6°C° 0 mm 2 mps 725 mmHg 82%
    02:00 +6°C° 0 mm 2 mps 725 mmHg 83%
    03:00 +6°C° 0 mm 2 mps 724 mmHg 83%
    04:00 +6°C° 0 mm 2 mps 724 mmHg 83%
    05:00 +6°C° 0 mm 2 mps 724 mmHg 83%
    06:00 +6°C° 0 mm 2 mps 724 mmHg 80%
    07:00 +7°C° 0 mm 2 mps 724 mmHg 77%
    08:00 +8°C° 0 mm 2 mps 724 mmHg 74%
    09:00 +10°C° 0 mm 2 mps 724 mmHg 68%
    10:00 +13°C° 0 mm 2 mps 724 mmHg 61%
    11:00 +15°C° 0 mm 2 mps 724 mmHg 55%
    12:00 +16°C° 0 mm 2 mps 723 mmHg 54%
    13:00 +17°C° 0 mm 2 mps 723 mmHg 53%
    14:00 +18°C° 0 mm 2 mps 722 mmHg 52%
    15:00 +17°C° 0 mm 2 mps 721 mmHg 58%
    16:00 +16°C° 0 mm 2 mps 721 mmHg 64%
    17:00 +15°C° 0 mm 2 mps 721 mmHg 70%
    18:00 +13°C° 0 mm 2 mps 722 mmHg 76%
    19:00 +12°C° 0 mm 2 mps 722 mmHg 82%
    20:00 +10°C° 0 mm 1 mps 722 mmHg 88%
    21:00 +9°C° 0 mm 2 mps 723 mmHg 88%
    22:00 +9°C° 0 mm 2 mps 723 mmHg 88%
    23:00 +9°C° 0 mm 2 mps 723 mmHg 87%

    Day after tomorrow, 29 May, Monday

    Time Temperature Precipitation Wind Pressure Humidity
    00:00 +9°C° 0 mm 2 mps 723 mmHg 88%
    01:00 +10°C° 0 mm 1 mps 722 mmHg 89%
    02:00 +9°C° 0 mm 1 mps 722 mmHg 89%
    03:00 +9°C° 0 mm 1 mps 722 mmHg 89%
    04:00 +9°C° 0 mm 1 mps 722 mmHg 90%
    05:00 +9°C° 0 mm 1 mps 722 mmHg 90%
    06:00 +10°C° 0 mm 1 mps 722 mmHg 88%
    07:00 +11°C° 0 mm 1 mps 723 mmHg 85%
    08:00 +12°C° 0 mm 1 mps 723 mmHg 83%
    09:00 +14°C° 0 mm 2 mps 723 mmHg 77%
    10:00 +16°C° 0 mm 2 mps 724 mmHg 70%
    11:00 +17°C° 0 mm 2 mps 724 mmHg 63%
    12:00 +18°C° 0 mm 2 mps 723 mmHg 63%
    13:00 +18°C° 0 mm 3 mps 722 mmHg 64%
    14:00 +19°C° 0 mm 3 mps 722 mmHg 64%
    15:00 +17°C° 0 mm 3 mps 721 mmHg 71%
    16:00 +16°C° 0 mm 2 mps 721 mmHg 79%
    17:00 +15°C° 0 mm 2 mps 721 mmHg 86%
    18:00 +15°C° 0.1 mm 2 mps 722 mmHg 88%
    19:00 +14°C° 0.1 mm 1 mps 723 mmHg 90%
    20:00 +13°C° 0.1 mm 1 mps 723 mmHg 92%
    21:00 +13°C° 0.1 mm 1 mps 723 mmHg 93%
    22:00 +13°C° 0.1 mm 1 mps 724 mmHg 93%
    23:00 +13°C° 0.1 mm 1 mps 724 mmHg 93%

    30 May, Tuesday

    Time Temperature Precipitation Wind Pressure Humidity
    00:00 +13°C° 0.1 mm 1 mps 723 mmHg 93%
    01:00 +13°C° 0.1 mm 1 mps 723 mmHg 92%
    02:00 +13°C° 0.1 mm 2 mps 723 mmHg 92%
    03:00 +13°C° 0.1 mm 2 mps 723 mmHg 92%
    04:00 +13°C° 0.1 mm 2 mps 723 mmHg 91%
    05:00 +13°C° 0.1 mm 2 mps 722 mmHg 91%
    06:00 +13°C° 0.1 mm 2 mps 723 mmHg 90%
    07:00 +13°C° 0.1 mm 2 mps 723 mmHg 89%
    08:00 +13°C° 0.1 mm 2 mps 724 mmHg 88%
    09:00 +13°C° 0.1 mm 3 mps 724 mmHg 88%
    10:00 +13°C° 0.1 mm 3 mps 724 mmHg 87%
    11:00 +14°C° 0.1 mm 3 mps 724 mmHg 86%
    12:00 +14°C° 0 mm 3 mps 723 mmHg 87%
    13:00 +16°C° 0 mm 3 mps 723 mmHg 87%
    14:00 +15°C° 0 mm 4 mps 722 mmHg 87%
    15:00 +16°C° 0.1 mm 3 mps 723 mmHg 89%
    16:00 +16°C° 0.1 mm 3 mps 723 mmHg 90%
    17:00 +14°C° 0.1 mm 3 mps 723 mmHg 92%
    18:00 +15°C° 0.1 mm 2 mps 724 mmHg 93%
    19:00 +14°C° 0.1 mm 2 mps 725 mmHg 95%
    20:00 +14°C° 0.1 mm 2 mps 725 mmHg 96%
    21:00 +14°C° 0 mm 1 mps 725 mmHg 96%
    22:00 +13°C° 0 mm 1 mps 725 mmHg 96%
    23:00 +13°C° 0 mm 1 mps 725 mmHg 96%

    31 May, Wednesday

    Time Temperature Precipitation Wind Pressure Humidity
    00:00 +13°C° 0 mm 1 mps 725 mmHg 96%
    01:00 +12°C° 0 mm 1 mps 724 mmHg 95%
    02:00 +12°C° 0 mm 1 mps 724 mmHg 95%
    03:00 +12°C° 0 mm 1 mps 724 mmHg 94%
    04:00 +12°C° 0 mm 1 mps 723 mmHg 93%
    05:00 +12°C° 0 mm 1 mps 723 mmHg 93%
    06:00 +12°C° 0 mm 1 mps 724 mmHg 91%
    07:00 +13°C° 0 mm 1 mps 724 mmHg 90%
    08:00 +13°C° 0 mm 1 mps 725 mmHg 88%
    09:00 +14°C° 0 mm 1 mps 725 mmHg 83%
    10:00 +16°C° 0 mm 2 mps 725 mmHg 77%
    11:00 +17°C° 0 mm 2 mps 725 mmHg 72%
    12:00 +17°C° 0 mm 2 mps 724 mmHg 69%
    13:00 +18°C° 0 mm 2 mps 723 mmHg 67%
    14:00 +19°C° 0 mm 2 mps 723 mmHg 64%
    15:00 +18°C° 0 mm 2 mps 723 mmHg 68%
    16:00 +17°C° 0 mm 2 mps 723 mmHg 72%
    17:00 +16°C° 0 mm 1 mps 723 mmHg 77%
    18:00 +15°C° 0 mm 1 mps 723 mmHg 82%
    19:00 +13°C° 0 mm 1 mps 724 mmHg 87%
    20:00 +12°C° 0 mm 1 mps 724 mmHg 92%
    21:00 +11°C° 0 mm 1 mps 724 mmHg 92%
    22:00 +11°C° 0 mm 1 mps 724 mmHg 91%
    23:00 +10°C° 0 mm 2 mps 724 mmHg 91%

    1 June, Thursday

    Time Temperature Precipitation Wind Pressure Humidity
    00:00 +10°C° 0 mm 2 mps 724 mmHg 90%
    01:00 +10°C° 0 mm 2 mps 723 mmHg 90%
    02:00 +10°C° 0 mm 2 mps 723 mmHg 89%
    03:00 +10°C° 0 mm 2 mps 723 mmHg 89%
    04:00 +10°C° 0 mm 2 mps 722 mmHg 89%
    05:00 +9°C° 0 mm 2 mps 722 mmHg 88%
    06:00 +10°C° 0 mm 2 mps 723 mmHg 86%
    07:00 +12°C° 0 mm 2 mps 723 mmHg 83%
    08:00 +13°C° 0 mm 2 mps 723 mmHg 81%
    09:00 +14°C° 0 mm 3 mps 723 mmHg 71%
    10:00 +18°C° 0 mm 3 mps 723 mmHg 61%
    11:00 +20°C° 0 mm 4 mps 723 mmHg 51%
    12:00 +21°C° 0 mm 4 mps 722 mmHg 49%
    13:00 +22°C° 0 mm 4 mps 721 mmHg 47%
    14:00 +23°C° 0 mm 4 mps 721 mmHg 45%
    15:00 +22°C° 0 mm 4 mps 721 mmHg 50%
    16:00 +21°C° 0 mm 4 mps 720 mmHg 54%
    17:00 +20°C° 0 mm 3 mps 720 mmHg 59%
    18:00 +18°C° 0 mm 3 mps 720 mmHg 65%
    19:00 +16°C° 0 mm 3 mps 721 mmHg 71%
    20:00 +13°C° 0 mm 3 mps 721 mmHg 77%
    21:00 +13°C° 0 mm 3 mps 721 mmHg 79%
    22:00 +12°C° 0 mm 3 mps 721 mmHg 80%
    23:00 +12°C° 0 mm 3 mps 721 mmHg 82%
    Show more